Location: Alladorf
(49.9620°N, 11.3790°E)
Time: 21:24:30
(UTC+00:00)

Cosmos 2344 - Pass Details

Date: 29 November 2020
Orbit: 1244 x 2998 km, 63.3° (Epoch: 24 January)

Event Time Altitude Azimuth Distance (km) Brightness Sun altitude
Exits shadow 03:52:49 31° 321° (NW) 2,531 4.8 -27.5°
Maximum altitude 03:58:08 81° 45° (NE) 1,841 4.3 -26.6°
Drops below altitude 10° 04:10:49 10° 134° (SE) 4,943 7.3 -24.6°
Sets 04:14:58 0° 135° (SE) 6,181 7.9 -23.9°
